Printer-friendly version
Follow the MPC on Twitter Follow the MPC on Facebook The MPC blog
Minor Planet Center

MPEC 2005-W35 : 2005 WZ

The following Minor Planet Electronic Circular may be linked-to from your own Web pages, but must not otherwise be redistributed electronically.

A form allowing access to any MPEC is at the bottom of this page.


Read MPEC 2005-W34 Read MPEC 2005-W36


M.P.E.C. 2005-W35                                Issued 2005 Nov. 22, 12:44 UT

     The Minor Planet Electronic Circulars contain information on unusual
         minor planets and routine data on comets.  They are published
   on behalf of Commission 20 of the International Astronomical Union by the
          Minor Planet Center, Smithsonian Astrophysical Observatory,
                          Cambridge, MA 02138, U.S.A.

                  Supported in part by the Brinson Foundation
                  Supported in part by the TABASGO Foundation
             Prepared using the Tamkin Foundation Computer Network

                              MPC@CFA.HARVARD.EDU
          URL http://cfa-www.harvard.edu/iau/mpc.html  ISSN 1523-6714

                                    2005 WZ

Observations:
     K05W00Z* C2005 11 21.16216 01 01 06.70 +29 49 05.9          19.5 V EW035703
     K05W00Z  C2005 11 21.16873 01 01 09.15 +29 49 47.1          19.9 V EW035703
     K05W00Z  C2005 11 21.17527 01 01 11.56 +29 50 28.2          19.4 V EW035703
     K05W00Z  C2005 11 21.18179 01 01 13.87 +29 51 08.6          20.2 V EW035703
     K05W00Z  C2005 11 21.23466 01 01 33.27 +29 56 29.2          19.5 V EW035703
     K05W00Z  C2005 11 21.23553 01 01 33.76 +29 56 36.1          19.5 V EW035703
     K05W00Z  C2005 11 21.23640 01 01 34.15 +29 56 41.1          19.5 V EW035703
     K05W00Z  C2005 11 21.31766 01 02 04.56 +30 04 48.5          19.1 V EW035703
     K05W00Z  C2005 11 21.31853 01 02 04.77 +30 04 52.2          19.4 V EW035703
     K05W00Z  C2005 11 21.31941 01 02 05.13 +30 04 57.9          19.4 V EW035703
     K05W00Z  C2005 11 21.32028 01 02 05.60 +30 05 03.6          19.4 V EW035703
     K05W00Z SC2005 11 21.83323 01 05 36.03 +30 56 12.1                 EW035J95
     K05W00Z SC2005 11 21.83520 01 05 36.73 +30 56 24.0          18.9 R EW035J95
     K05W00Z 5C2005 11 22.18970 01 07 58.69 +31 31 25.4          19.0 R EW035673
     K05W00Z 5C2005 11 22.19549 01 08 00.88 +31 31 59.0          19.3 R EW035673
     K05W00Z 5C2005 11 22.19965 01 08 02.48 +31 32 23.9                 EW035673
     K05W00Z 5C2005 11 22.20451 01 08 04.30 +31 32 51.5                 EW035673
     K05W00Z  C2005 11 22.26292 01 08 25.50 +31 38 28.9          19.7 R EW035651
     K05W00Z  C2005 11 22.26384 01 08 25.91 +31 38 32.5          19.6 R EW035651
     K05W00Z  C2005 11 22.26568 01 08 26.53 +31 38 46.0          19.6 R EW035651
     K05W00Z  C2005 11 22.28594 01 08 34.16 +31 40 40.1          20.0 V EW035703
     K05W00Z  C2005 11 22.28692 01 08 34.57 +31 40 47.1          20.0 V EW035703
     K05W00Z  C2005 11 22.28791 01 08 34.91 +31 40 49.5          20.2 V EW035703
     K05W00Z  C2005 11 22.28889 01 08 35.23 +31 40 54.2          19.1 V EW035703

Observer details:
651 Grasslands Observatory, Tucson.  Observer J. E. McGaha.  0.62-m f/5.1
    Newtonian reflector + CCD.
673 Table Mountain Observatory, Wrightwood.  Observer J. Young.  0.6-m f/16
    Cassegrain + CCD.
703 Catalina Sky Survey.  Observer R. Hill.  Measurers E. C. Beshore,
    E. J. Christensen, G. J. Garradd, A. D. Grauer, R. E. Hill, R. A. Kowalski,
    S. M. Larson, R. H. McNaught.  0.68-m Schmidt + CCD.
J95 Great Shefford.  Observer P. Birtwhistle.  0.40-m f/6.0 Schmidt-Cassegrain
    + CCD.

Orbital elements:
2005 WZ
Epoch 2005 Nov. 6.0 TT = JDT 2453680.5                  MPC
M   0.28622              (2000.0)            P               Q
n   0.28203457     Peri.  359.44246     +0.78754330     -0.61080335
a   2.3028615      Node    38.59614     +0.56591334     +0.66424012
e   0.5387376      Incl.    7.53669     +0.24396238     +0.43093426
P   3.49           H   22.7           G   0.15
From 21 observations 2005 Nov. 21-22.

Ephemeris:
2005 WZ                  a,e,i = 2.30, 0.54, 8                   q = 1.0622
Date    TT    R. A. (2000) Decl.     Delta      r     Elong.  Phase     V
2005 11 16    00 27.86   +19 54.5    0.106    1.071   138.3    37.9    19.5
2005 11 26    01 33.75   +36 58.9    0.129    1.093   143.2    32.8    19.8
2005 12 06    02 38.76   +45 25.5    0.168    1.127   144.8    30.3    20.4
2005 12 16    03 32.40   +48 07.1    0.220    1.172   145.4    28.5    21.0
2005 12 26    04 12.93   +47 59.1    0.282    1.225   145.0    27.4    21.6

Timothy B. Spahr             (C) Copyright 2005 MPC           M.P.E.C. 2005-W35

Read MPEC 2005-W34 Read MPEC 2005-W36


MPEC number:

Enter an MPEC number in one of the following forms:

  • 1997-B01 (the full form)
  • J97B01 (the packed version of the full form)
  • B01 (the abbreviated form)

Valid HTML 4.01!